Location: Novo Ouro Preto
(19.8840°S, 43.9844°W)
Time: 09:54:59
(UTC+00:00)

Cosmos 2034 Rocket - Pass Details

Date: 18 September 2020
Orbit: 957 x 1002 km, 82.9° (Epoch: 21 October)

Event Time Altitude Azimuth Distance (km) Brightness Sun altitude
Rises 22:03:25 0° 183° (S) 3,715 7.1 -17.8°
Reaches altitude 10° 22:05:57 10° 181° (S) 2,767 6.4 -18.4°
Maximum altitude 22:12:19 80° 95° (E) 1,019 3.9 -19.9°
Drops below altitude 10° 22:18:40 10° 7° (N) 2,760 6.2 -21.3°
Sets 22:21:11 0° 6° (N) 3,705 6.9 -21.9°
